Regional Weather Roundup
Issued by NWS Grand Forks, ND

Home | Current Version | Previous Version | Graphics & Text | Print | Product List | Glossary On
Versions: 1 2 3 4 5 6 7 8 9 10 11 12 13 14 15 16 17 18 19 20 21 22 23 24 25 26 27 28 29 30 31 32 33 34 35 36 37 38 39 40 41 42 43 44 45 46 47 48 49 50
000
ASUS43 KFGF 221510
RWRFGF
PRAIRIE TO PINES  WEATHER ROUNDUP
NATIONAL WEATHER SERVICE EASTERN NORTH DAKOTA/GRAND FORKS ND
1000 AM CDT SUN APR 22 2018

 **SATELLITE DATA USED TO AUGMENT SKY COVER AT AUTOMATED STATIONS**
 *****  WEATHER ACROSS EASTERN NORTH DAKOTA  *****

CITY           SKY/WX    TMP DP  RH WIND       PRES   REMARKS
GRAND FORKS    FAIR      46  40  79 S15       30.20F
GRAND FRKS AFB FAIR      48  39  70 S16       30.19F
GRAND FRKS NWS   N/A     47  39  74 S12       30.19F
DEVILS LAKE    FAIR      47  35  63 SW15      30.15F
FARGO          FAIR      50  36  58 S15       30.26F
WAHPETON ARPT  FAIR      46  36  66 S10       30.30S
$$

 ***** WEATHER ACROSS CENTRAL AND WESTERN NORTH DAKOTA  *****

CITY           SKY/WX    TMP DP  RH WIND       PRES   REMARKS
BISMARCK       FAIR      51  37  58 SW12      30.17F
MINOT          FAIR      54  37  52 SW7       30.10S
JAMESTOWN      FAIR      48  38  68 S16       30.20F
MINOT AFB      FAIR      52  37  56 NW10      30.09S
GARRISON         N/A     45  38  76 SW7       30.13S
WILLISTON      FAIR      54  29  38 W6        30.13S
DICKINSON      PTSUNNY   52  35  52 NW6       30.11S
HETTINGER      FAIR      46  38  73 VRB3      30.16S
$$

 *****  OTHER AIRPORT OBSERVATIONS IN OUR AREA  *****

CITY           SKY/WX    TMP DP  RH WIND       PRES   REMARKS
WALHALLA       FAIR      54  37  54 SW20G28   30.12F
GRAFTON AIRPOR NOT AVBL
VALLEY CITY AR NOT AVBL
CANDO          FAIR      50  37  62 SW17G23   30.15S
CAVALIER APRT    N/A     52  37  58 S14G24    30.14F
GWINNER          N/A     48  39  71 S10       30.26F
SHEYENNE NWR     N/A     50  38  62 SW10      29.95S
ROLLA          FAIR      43  41  93 SW18      30.10S
 ***** THE ABOVE OBSERVATIONS ARE NON NWS ARE NOT QUALITY
       CONTROLLED AND MAY MIS-REPORT RAIN FOR SNOW...
$$

  *****  WEATHER ACROSS NORTHERN MINNESOTA  *****

CITY           SKY/WX    TMP DP  RH WIND       PRES   REMARKS
FLAG ISLAND    FAIR      36  32  87 SE13      30.20F
WARROAD        FAIR      50  34  53 SW12G20   30.21F
ROSEAU         FAIR      48  37  66 S15       30.20F
HALLOCK        FAIR      50  41  71 S16       30.18S
THF RVR FALLS  FAIR      48  34  58 SW18G25   30.25F
BAUDETTE       FAIR      52  30  43 S15       30.23F
WASKISH        CLOUDY    55  36  47 SW10G16   30.26F
CROOKSTON      FAIR      48  37  66 SW14      30.25S
STEPHEN NDAWN    N/A     48  39  71 S15         N/A
GREENBUSH NDAW   N/A     48  39  71 S15         N/A
$$
  *****  WEATHER ACROSS CENTRAL AND WEST MINNESOTA  *****

CITY           SKY/WX    TMP DP  RH WIND       PRES   REMARKS
FOSSTON        FAIR      48  30  49 S22       30.27S
BEMIDJI        FAIR      52  29  42 SW12G17   30.29S
PARK RAPIDS    FAIR      51  33  50 S10       30.30S
ELBOW LAKE     FAIR      48  37  66 S12       30.31S
WADENA         FAIR      52  36  54 S10       30.30S
DETROIT LAKES  FAIR      52  32  46 S8        30.30S
MOORHEAD       FAIR      48  36  61 S10       30.28F
FERGUS FALLS   FAIR      48  37  66 S12       30.28S
MORRIS MN      FAIR      46  39  76 S10       30.31F
STAPLES        FAIR      48  34  57 S9        30.32S
$$
  *****  WEATHER ELSEWHERE ACROSS MINNESOTA  *****

CITY           SKY/WX    TMP DP  RH WIND       PRES   REMARKS
DULUTH         FAIR      50  26  39 S6        30.34F
INTRNTL FALLS  FAIR      52  30  43 SW8       30.28F
ELY            FAIR      52  18  25 SW7       30.33S
CLOQUET        FAIR      50  19  29 SE3       30.35S
WHEATON        FAIR      46  36  66 S12       30.31F
BRAINERD       FAIR      52  31  44 S12       30.34F
HIBBING        FAIR      49  28  44 CALM      30.33F
ALEXANDRIA     FAIR      53  35  50 S9        30.32F
SAINT CLOUD    FAIR      50  35  56 SE8       30.35F
MINNEAPOLIS    FAIR      51  34  52 S5        30.38S
$$

  *****  WEATHER ACROSS SOUTH DAKOTA  *****

CITY           SKY/WX    TMP DP  RH WIND       PRES   REMARKS
SIOUX FALLS    FAIR      50  35  56 E6        30.29F
BROOKINGS      FAIR      49  35  58 S10       30.31R
WATERTOWN      FAIR      47  35  63 S9        30.28F
HURON          FAIR      48  38  68 SE5       30.27F
SISSETON         N/A     51  39  63 S7        30.27S
ABERDEEN       FAIR      47  37  68 S6        30.28S
MITCHELL       FAIR      47  39  74 SE9       30.29S
PIERRE         FAIR      47  40  76 S6        30.22F
MOBRIDGE       FAIR      48  39  71 S10       30.17F
RAPID CITY     FAIR      44  37  76 SE5       30.17S
$$

  *****  SOME WEATHER IN NEARBY STATES *****

CITY           SKY/WX    TMP DP  RH WIND       PRES   REMARKS
GLASGOW MT     FAIR      49  30  48 NW8       30.14F
GREAT FALLS MT FAIR      43  24  47 N7        30.17R
CHEYENNE WY    FAIR      49  38  65 NE7       30.17S
SCOTTSBLUFF NE CLOUDY    41  40  96 SE6       30.20S
OMAHA NE       PTSUNNY   57  32  38 E7        30.22F
DES MOINES IA  PTSUNNY   51  30  44 E10       30.26S
DAVENPORT IA   FAIR      53  24  32 E20       30.33R
CHICAGO IL     PTSUNNY   53  21  28 E9        30.36S
EAU CLAIRE WI  FAIR      53  34  48 NE5       30.38S
LA CROSSE WI   FAIR      51  35  54 CALM      30.38F
$$

  *****  SOME NATIONAL WEATHER *****

CITY           SKY/WX    TMP DP  RH WIND       PRES   REMARKS
LA GUARDIA NY  FAIR      57  22  25 N5        30.41S
RALEIGH NC     PTSUNNY   63  46  54 SW6       30.38F
ATLANTA GA     LGT RAIN  59  57  93 E10G24    30.22R
NEW ORLEANS LA LGT RAIN  71  70  96 SE15      29.89F FOG
OKLAHOMA CITY  CLOUDY    47  43  86 N17       30.09F
ALBUQUERQUE NM FAIR      49  34  56 N8        30.20R
SALT LAKE CITY FAIR      56  35  45 SE7       30.13F
LOS ANGELES CA FAIR      62  53  72 E5        29.95R
BOISE ID       FAIR      44  26  49 NW7       30.15S
SEATTLE WA     PTSUNNY   45  38  76 NE10      30.41S
$$

*** WEATHER ACROSS MANITOBA...SASKATCHEWAN AND ONTARIO ***
                ***ONTARIO***

CITY           SKY/WX    TMP DP  RH WIND       PRES   REMARKS
GERALDTON      PTSUNNY   50  19  29 SW13      30.31F
THUNDER BAY    PTSUNNY   46  28  49 E8        30.36F
SIOUX LOOKOUT  PTSUNNY   50  32  50 SW9       30.23F
TORONTO        SUNNY     54  19  26 VRB2      30.45S
BIG TROUT LK   SUNNY     46  30  53 S9        30.08F
PICKLE LAKE    PTSUNNY   52  28  40 SW12G17   30.18F
DRYDEN         CLOUDY    48  32  53 S10       30.22F
KENORA         PTSUNNY   48  32  53 SW15      30.19F
$$
                *** MANITOBA***

CITY           SKY/WX    TMP DP  RH WIND       PRES   REMARKS
BRANDON        PTSUNNY   46  37  71 W15G24    30.05R
DAUPHIN        MOSUNNY   52  39  62 W25G37    29.92F
ISLAND LAKE    CLOUDY    52  34  50 S18G32    29.84F
PILOT MOUND      N/A     48  37  66 SW20        N/A
THE PAS        CLOUDY    43  36  75 SW16G25   29.57S
THOMPSON       LGT RAIN  43  41  93 SE7       29.59F
WINNIPEG       PTSUNNY   52  37  58 SW23G33   30.08S
LYNN LAKE      LGT RAIN  36  36 100 E9G17     29.48F FOG
CHURCHILL      CLOUDY    25  21  86 E23       30.05F WCI  10
GILLAM         CLOUDY    37  36  93 E7        29.79F
$$
                ***SASKATCHEWAN***

CITY           SKY/WX    TMP DP  RH WIND       PRES   REMARKS
ESTEVAN        PTSUNNY   52  32  46 W12       30.09F
KINDERSLEY     MOSUNNY   43  27  52 W20G26    30.03S
LLOYDMINSTER   PTSUNNY   41  30  65 W22G33    29.89R
PRINCE ALBERT  PTSUNNY   43  34  70 W17G30    29.77R
REGINA         MOSUNNY   46  34  61 W23       30.05R
YORKTON        SUNNY     46  36  66 SW23G30   29.92S
N. BATTLEFORD  SUNNY     45  28  53 W25G32    29.92R
LA RONGE       LGT RAIN  39  37  93 W20G25    29.53R
SASKATOON      SUNNY     46  28  49 W25G32    29.93R
SWIFT CURRENT  SUNNY     45  25  45 W15       30.08S
$$
NOTE: THESE ARE AUTOMATED STATIONS WITH LIMITED QUALITY CONTROL
      "FAIR" INDICATES FEW OR NO CLOUDS BELOW 12,000 FEET WITH NO
      SIGNIFICANT WEATHER AND/OR OBSTRUCTIONS TO VISIBILITY.
      SKY/WX - SKY CONDITION AND SIGNIFICANT WEATHER.
      TMP - AIR TEMPERATURE.    DP   - DEWPOINT TEMPERATURE.
      RH  - RELATIVE HUMIDITY.  PRES - PRESSURE.
      HX  - HEAT INDEX.         WCI  - WIND CHILL INDEX.
$




USA.gov is the U.S. government's official web portal to all federal, state and local government web resources and services.